Location: Unspecified
(0.0000°N, 0.0000°E)
Time: 05:47:25
(UTC+00:00)

Tiros 1 - Pass Details

Date: 04 October 2020
Orbit: 630 x 663 km, 48.4° (Epoch: 28 October)

Event Time Altitude Azimuth Distance (km) Brightness Sun altitude
Rises 08:51:18 0° 208° (SSW) 2,912 10.4 45.5°
Reaches altitude 10° 08:53:42 10° 202° (SSW) 2,003 9.7 46.1°
Maximum altitude 08:58:07 45° 129° (SE) 854 9.4 47.2°
Drops below altitude 10° 09:02:31 10° 56° (NE) 2,002 10.3 48.3°
Sets 09:04:54 0° 50° (NE) 2,911 10.9 48.9°
